TimeIST,TemperatureF,Dew PointF,Humidity,Sea Level PressureIn,VisibilityMPH,Wind Direction,Wind SpeedMPH,Gust SpeedMPH,PrecipitationIn,Events,Conditions,WindDirDegrees,DateUTC
12:10 AM,75.2,73.4,94,29.65,3.1,SW,4.6,-,N/A,,Haze,230,2013-08-25 18:40:00
1:10 AM,75.2,73.4,94,29.65,3.1,WSW,4.6,-,N/A,,Haze,250,2013-08-25 19:40:00
2:10 AM,75.2,73.4,94,29.65,3.1,WSW,4.6,-,N/A,,Haze,250,2013-08-25 20:40:00
3:10 AM,75.2,73.4,94,29.62,3.1,SW,3.5,-,N/A,,Haze,230,2013-08-25 21:40:00
4:10 AM,75.2,73.4,94,29.62,3.1,WSW,2.3,-,N/A,,Haze,250,2013-08-25 22:40:00
5:10 AM,75.2,73.4,94,29.62,3.1,West,4.6,-,N/A,,Haze,260,2013-08-25 23:40:00
5:40 AM,75.2,73.4,94,29.62,2.5,West,2.3,-,N/A,,Haze,270,2013-08-26 00:10:00
6:10 AM,73.4,73.4,100,29.62,2.2,WSW,2.3,-,N/A,,Haze,250,2013-08-26 00:40:00
6:40 AM,73.4,71.6,94,29.65,2.2,SW,2.3,-,N/A,,Haze,230,2013-08-26 01:10:00
7:10 AM,73.4,71.6,94,29.65,2.2,WSW,2.3,-,N/A,,Haze,240,2013-08-26 01:40:00
8:10 AM,75.2,73.4,94,29.68,1.9,West,3.5,-,N/A,,Haze,280,2013-08-26 02:40:00
8:30 AM,77,74,89,29.64,1,West,4.6,,,,Haze,270,2013-08-26 03:00:00
8:40 AM,77.0,73.4,89,29.68,1.9,West,6.9,-,N/A,,Haze,270,2013-08-26 03:10:00
9:10 AM,77.0,73.4,89,29.68,2.2,West,5.8,-,N/A,,Haze,260,2013-08-26 03:40:00
10:10 AM,77.0,73.4,89,29.68,2.2,West,5.8,-,N/A,,Haze,280,2013-08-26 04:40:00
10:40 AM,77.0,73.4,89,29.68,2.5,West,5.8,-,N/A,,Haze,270,2013-08-26 05:10:00
11:10 AM,78.8,75.2,89,29.68,2.5,West,4.6,-,N/A,,Haze,280,2013-08-26 05:40:00
12:10 PM,82.4,77.0,84,29.68,3.1,West,4.6,-,N/A,,Haze,280,2013-08-26 06:40:00
12:40 PM,82.4,77.0,84,29.68,3.1,West,4.6,-,N/A,,Haze,280,2013-08-26 07:10:00
1:10 PM,82.4,78.8,89,29.62,3.1,SW,4.6,-,N/A,,Haze,230,2013-08-26 07:40:00
1:40 PM,82.4,78.8,89,29.62,3.1,WSW,3.5,-,N/A,,Haze,240,2013-08-26 08:10:00
2:30 PM,83,79,83,29.55,2,WNW,4.6,,,Rain,Light Rain,290,2013-08-26 09:00:00
3:10 PM,82.4,78.8,89,29.59,3.1,WNW,6.9,-,N/A,,Haze,300,2013-08-26 09:40:00
3:40 PM,84.2,78.8,84,29.59,3.1,WNW,6.9,-,N/A,,Haze,290,2013-08-26 10:10:00
4:10 PM,86.0,82.4,89,29.56,3.1,NW,6.9,-,N/A,,Haze,310,2013-08-26 10:40:00
4:40 PM,84.2,78.8,84,29.56,3.1,WNW,8.1,-,N/A,,Haze,300,2013-08-26 11:10:00
5:10 PM,84.2,78.8,84,29.59,3.1,WNW,8.1,-,N/A,,Haze,300,2013-08-26 11:40:00
5:30 PM,82,77,82,29.54,2,WNW,9.2,,,,Haze,290,2013-08-26 12:00:00
6:10 PM,82.4,77.0,84,29.59,3.1,WNW,5.8,-,N/A,,Haze,290,2013-08-26 12:40:00
6:40 PM,82.4,77.0,84,29.59,3.1,West,5.8,-,N/A,,Haze,280,2013-08-26 13:10:00
7:10 PM,80.6,77.0,89,29.62,3.1,WNW,4.6,-,N/A,,Haze,290,2013-08-26 13:40:00
7:40 PM,80.6,77.0,89,29.65,2.5,WNW,5.8,-,N/A,,Haze,290,2013-08-26 14:10:00
8:10 PM,80.6,77.0,89,29.65,2.5,WNW,4.6,-,N/A,,Haze,290,2013-08-26 14:40:00
8:30 PM,79,77,91,29.62,1,NW,4.6,,,,Haze,320,2013-08-26 15:00:00
8:40 PM,80.6,77.0,89,29.68,2.5,West,3.5,-,N/A,,Haze,260,2013-08-26 15:10:00
10:10 PM,78.8,75.2,89,29.68,2.5,West,3.5,-,N/A,,Haze,270,2013-08-26 16:40:00
10:40 PM,78.8,75.2,89,29.68,2.5,WNW,5.8,-,N/A,,Haze,290,2013-08-26 17:10:00
11:10 PM,77.0,75.2,94,29.68,2.5,West,4.6,-,N/A,,Haze,260,2013-08-26 17:40:00
11:30 PM,77,76,94,29.63,1,West,5.8,,,,Haze,270,2013-08-26 18:00:00